Talkeetna, AK

10:55 AM AKDT on April 29, 2017 (GMT -0800)
Talkeetna

Weather History for PATK - February, 2014

Change the Weather History Date:

Friday, February 21, 2014

  Actual Average Record
Temperature  
Mean Temperature 6 °F -  
Max Temperature 21 °F 26 °F 48 °F (2004)
Min Temperature -9 °F 4 °F -34 °F (1954)
Degree Days  
Heating Degree Days 59    
Moisture  
Dew Point -5 °F    
Average Humidity 56    
Maximum Humidity 80    
Minimum Humidity 20    
Precipitation  
Precipitation 0.00 in - - ()
Sea Level Pressure  
Sea Level Pressure 30.30 in    
Wind  
Wind Speed 3 mph (NNE)    
Max Wind Speed 12 mph    
Max Gust Speed 17 mph    
Visibility 10 miles    
Events      
Averages and records for this station are not official NWS values.
T = Trace of Precipitation, MM = Missing Value Source: NWS Daily Summary

Daily Weather History Graph

Daily Weather History Graph

Search for Another Location

Airport or City:

Trip Planner

Search our weather history database for the weather conditions in past years. The results will help you decide how hot, cold, wet, or windy it might be!

Date:

Astronomy

Feb. 21, 2014 Rise Set
Actual Time 8:28 AM AKST 6:00 PM AKST
Civil Twilight 7:41 AM AKST 6:47 PM AKST
Nautical Twilight 6:50 AM AKST 7:39 PM AKST
Astronomical Twilight 5:58 AM AKST 8:31 PM AKST
Moon 2:04 AM AKST (2/21) 9:54 AM AKST (2/21)
Length of Visible Light 11h 05m
Length of Day
9h 32m
Waning Gibbous, 59% of the Moon is Illuminated
Feb 21
Waning Gibbous
Feb 22
Last Quarter
Feb 28
New
Mar 8
First Quarter
Mar 16
Full

Hourly Weather History & Observations

Time (AKST) Temp. Windchill Dew Point Humidity Pressure Visibility Wind Dir Wind Speed Gust Speed Precip Events Conditions
12:53 AM -2.9 °F - -8.0 °F 79% 30.19 in 10.0 mi Calm Calm - N/A   Clear
1:53 AM -5.1 °F - -9.9 °F 80% 30.21 in 10.0 mi Calm Calm - N/A   Clear
3:53 AM -6.0 °F -14.7 °F -11.0 °F 79% 30.22 in 10.0 mi ENE 3.5 mph - N/A   Clear
4:53 AM -6.0 °F - -11.0 °F 79% 30.24 in 10.0 mi Calm Calm - N/A   Clear
5:53 AM -8.0 °F -16.9 °F -13.0 °F 79% 30.25 in 10.0 mi NE 3.5 mph - N/A   Clear
6:53 AM -8.0 °F - -13.0 °F 79% 30.26 in 10.0 mi Calm Calm - N/A   Clear
7:53 AM -9.0 °F -18.2 °F -14.1 °F 79% 30.27 in 10.0 mi NE 3.5 mph - N/A   Clear
8:53 AM -8.0 °F - -13.0 °F 79% 30.29 in 10.0 mi Calm Calm - N/A   Clear
9:53 AM -0.0 °F -9.9 °F -7.1 °F 72% 30.30 in 10.0 mi North 4.6 mph - N/A   Clear
10:53 AM 10.0 °F 1.8 °F -2.0 °F 58% 30.31 in 10.0 mi North 4.6 mph - N/A   Clear
11:53 AM 14.0 °F 8.2 °F -0.0 °F 54% 30.32 in 10.0 mi Variable 3.5 mph - N/A   Partly Cloudy
12:53 PM 19.0 °F 12.3 °F -0.0 °F 43% 30.32 in 10.0 mi NNE 4.6 mph - N/A   Clear
1:53 PM 19.9 °F 10.1 °F -2.0 °F 38% 30.32 in 10.0 mi NNE 8.1 mph - N/A   Partly Cloudy
2:53 PM 21.9 °F 13.4 °F -2.0 °F 35% 30.32 in 10.0 mi NNE 6.9 mph - N/A   Partly Cloudy
3:53 PM 21.9 °F 11.7 °F -0.9 °F 37% 30.32 in 10.0 mi NE 9.2 mph - N/A   Scattered Clouds
4:53 PM 19.9 °F 9.3 °F -2.0 °F 38% 30.33 in 10.0 mi NE 9.2 mph - N/A   Scattered Clouds
5:53 PM 19.0 °F 10.0 °F -2.0 °F 40% 30.33 in 10.0 mi North 6.9 mph - N/A   Mostly Cloudy
6:53 PM 19.0 °F 10.0 °F -0.9 °F 42% 30.33 in 10.0 mi North 6.9 mph - N/A   Overcast
7:53 PM 17.1 °F 6.6 °F -0.9 °F 45% 30.35 in 10.0 mi North 8.1 mph - N/A   Clear
8:53 PM 16.0 °F 6.3 °F -0.9 °F 47% 30.36 in 10.0 mi North 6.9 mph - N/A   Overcast
9:53 PM 16.0 °F 3.6 °F -2.0 °F 45% 30.36 in 10.0 mi NNE 10.4 mph - N/A   Scattered Clouds
10:53 PM 15.1 °F 1.8 °F -2.0 °F 47% 30.37 in 10.0 mi North 11.5 mph 16.1 mph N/A   Clear
11:53 PM 15.1 °F 4.2 °F -2.9 °F 45% 30.38 in 10.0 mi North 8.1 mph 17.3 mph N/A   Clear